Location: Ferchesar
(52.6477°N, 12.4298°E)
Time: 23:36:50
(UTC+01:00)

Transit 4A - Pass Details

Date: 10 December 2021
Orbit: 864 x 981 km, 66.8° (Epoch: 19 January)

Event Time Altitude Azimuth Distance (km) Brightness Sun altitude
Rises 18:30:52 0° 214° (SSW) 3,467 11.5 -22.2°
Reaches altitude 10° 18:33:18 10° 213° (SSW) 2,545 10.7 -22.5°
Maximum altitude 18:39:13 83° 127° (SE) 919 7.7 -23.4°
Enters shadow 18:41:08 46° 45° (NE) 1,210 8.1 -23.7°
